GW5167 Weather Reports


Display with metric or nautical units.
time (UTC)temp
F
wind
direction
speed
MPH
gust
MPH
rain 1hr
in
rain 24hr
in
rain mn
in
humidity
%
barometer
mb
20260906115845 69 141 1.0 2.0 0.00 0.00 0.00 94 1016.5
20260906115340 69 202 1.0 1.0 0.00 0.00 0.00 95 1016.5
20260906114839 69 196 2.0 3.0 0.00 0.00 0.00 95 1016.3
20260906114335 69 210 0.0 1.0 0.00 0.00 0.00 95 1016.3
20260906113830 69 153 1.0 2.0 0.00 0.00 0.00 95 1016.4
20260906113329 69 167 1.0 2.0 0.00 0.00 0.00 95 1016.2
20260906112824 69 175 1.0 1.0 0.00 0.00 0.00 95 1016.4
20260906112321 69 185 1.0 2.0 0.00 0.00 0.00 95 1016.3
20260906111820 69 193 0.0 0.0 0.00 0.00 0.00 94 1016.3
20260906111319 69 187 0.0 1.0 0.00 0.00 0.00 94 1016.3
20260906110814 69 158 1.0 2.0 0.00 0.00 0.00 94 1016.2
20260906110310 70 166 1.0 1.0 0.00 0.00 0.00 94 1016.2
20260906105809 70 188 0.0 0.0 0.00 0.00 0.00 94 1016.1
20260906105306 70 186 1.0 2.0 0.00 0.00 0.00 95 1016.1
20260906104801 70 180 0.0 0.0 0.00 0.00 0.00 95 1016.2
20260906104259 70 148 3.0 3.0 0.00 0.00 0.00 96 1016.1
20260906103757 70 105 3.0 4.0 0.00 0.00 0.00 96 1016.3
20260906103257 69 182 1.0 1.0 0.00 0.00 0.00 97 1016.3
20260906102753 69 151 3.0 3.0 0.00 0.00 0.00 97 1016.3
20260906102251 69 211 0.0 0.0 0.00 0.00 0.00 97 1016.2
20260906101747 69 193 0.0 0.0 0.00 0.00 0.00 97 1016.1
20260906101242 68 176 2.0 2.0 0.00 0.00 0.00 97 1016.1
20260906100737 68 209 0.0 0.0 0.00 0.00 0.00 97 1016.0
20260906100237 68 199 0.0 0.0 0.00 0.00 0.00 96 1016.2
20260906095732 69 202 0.0 0.0 0.00 0.00 0.00 96 1015.9
20260906095227 68 165 0.0 0.0 0.00 0.00 0.00 96 1016.1
20260906094726 69 203 0.0 0.0 0.00 0.00 0.00 96 1016.1
20260906094222 69 205 0.0 0.0 0.00 0.00 0.00 96 1016.1
20260906093718 69 208 0.0 0.0 0.00 0.00 0.00 96 1015.7
20260906093213 69 221 0.0 0.0 0.00 0.00 0.00 95 1015.6
20260906092709 69 218 0.0 0.0 0.00 0.00 0.00 95 1015.6
20260906092208 69 173 1.0 2.0 0.00 0.00 0.00 95 1015.5
20260906091704 69 208 0.0 0.0 0.00 0.00 0.00 94 1015.4
20260906091200 70 223 0.0 0.0 0.00 0.00 0.00 94 1015.3
20260906090656 70 158 2.0 2.0 0.00 0.00 0.00 94 1015.3
20260906090155 70 126 1.0 1.0 0.00 0.00 0.00 94 1015.1
20260906085655 70 174 3.0 3.0 0.00 0.00 0.00 94 1015.2
20260906085154 70 177 0.0 1.0 0.00 0.00 0.00 94 1015.1
20260906084649 70 107 1.0 1.0 0.00 0.00 0.00 94 1015.0
20260906084148 70 174 0.0 1.0 0.00 0.00 0.00 94 1015.1
20260906083643 70 196 0.0 1.0 0.00 0.00 0.00 94 1015.2
20260906083139 70 150 0.0 1.0 0.00 0.00 0.00 94 1015.1
20260906082634 70 210 0.0 1.0 0.00 0.00 0.00 94 1015.0
20260906082129 70 192 0.0 1.0 0.00 0.00 0.00 94 1015.0
20260906081625 70 218 1.0 2.0 0.00 0.00 0.00 94 1015.1
20260906081120 70 115 1.0 1.0 0.00 0.00 0.00 93 1015.1
20260906080617 70 235 1.0 1.0 0.00 0.00 0.00 93 1015.1
20260906080113 70 241 2.0 4.0 0.00 0.00 0.00 94 1015.2
20260906075606 70 39 1.0 1.0 0.00 0.00 0.00 94 1015.2
20260906075102 70 72 0.0 1.0 0.00 0.00 0.00 93 1015.1
20260906074557 70 249 0.0 1.0 0.00 0.00 0.00 93 1015.1
20260906074055 70 82 3.0 4.0 0.00 0.00 0.00 93 1015.0
20260906073550 70 140 1.0 1.0 0.00 0.00 0.00 93 1015.0
20260906073046 70 129 2.0 2.0 0.00 0.00 0.00 94 1015.0
20260906072540 70 131 2.0 2.0 0.00 0.00 0.00 94 1015.1
20260906072037 70 155 1.0 1.0 0.00 0.00 0.00 94 1015.2
20260906071533 70 216 0.0 0.0 0.00 0.00 0.00 94 1015.3
20260906071028 70 170 0.0 0.0 0.00 0.00 0.00 93 1015.5
20260906070524 70 112 3.0 3.0 0.00 0.00 0.00 94 1015.4
20260906070020 71 125 2.0 3.0 0.00 0.00 0.00 94 1015.3
20260906065519 71 134 2.0 2.0 0.00 0.00 0.00 94 1015.4
20260906065015 71 199 2.0 2.0 0.00 0.00 0.00 94 1015.5
20260906064511 71 229 1.0 2.0 0.00 0.00 0.00 94 1015.6
20260906064011 71 226 0.0 0.0 0.00 0.00 0.00 94 1015.4
20260906063506 71 212 0.0 0.0 0.00 0.00 0.00 94 1015.9
20260906063001 71 162 0.0 1.0 0.00 0.00 0.00 94 1015.6
20260906062456 71 131 0.0 1.0 0.00 0.00 0.00 94 1015.7
20260906061951 71 189 0.0 0.0 0.00 0.00 0.00 94 1015.9
20260906061447 71 219 0.0 0.0 0.00 0.00 0.00 93 1015.7
20260906060941 71 199 0.0 0.0 0.00 0.00 0.00 93 1016.0
20260906060438 71 195 0.0 0.0 0.00 0.00 0.00 93 1015.7
20260906055935 72 100 2.0 2.0 0.00 0.00 0.00 93 1015.9
20260906055430 72 159 1.0 1.0 0.00 0.00 0.00 93 1015.9
20260906054925 72 176 1.0 1.0 0.00 0.00 0.00 93 1015.7
20260906054420 72 124 2.0 2.0 0.00 0.00 0.00 93 1015.5
20260906053916 72 187 0.0 1.0 0.00 0.00 0.00 93 1015.6
20260906053412 72 193 0.0 1.0 0.00 0.00 0.00 93 1015.7
20260906052908 72 216 0.0 0.0 0.00 0.00 0.00 93 1015.4
20260906052404 72 213 0.0 0.0 0.00 0.00 0.00 93 1015.5
20260906051900 72 174 0.0 0.0 0.00 0.00 0.00 93 1015.6
20260906051400 72 146 1.0 1.0 0.00 0.00 0.00 92 1015.4
20260906050856 72 268 0.0 0.0 0.00 0.00 0.00 92 1015.4
20260906050350 73 326 0.0 1.0 0.00 0.00 0.00 92 1015.4
20260906045849 73 261 0.0 0.0 0.00 0.00 0.00 91 1015.4
20260906045343 73 315 0.0 0.0 0.00 0.00 0.00 91 1015.1
20260906044840 73 175 1.0 1.0 0.00 0.00 0.00 91 1015.2
20260906044334 73 188 0.0 1.0 0.00 0.00 0.00 91 1015.1
20260906043830 73 215 0.0 0.0 0.00 0.00 0.00 92 1015.3
20260906043326 73 169 0.0 0.0 0.00 0.00 0.00 92 1015.2
20260906042826 73 272 0.0 0.0 0.00 0.00 0.00 92 1015.2
20260906042325 73 198 0.0 0.0 0.00 0.00 0.00 92 1015.3
20260906041821 73 160 0.0 1.0 0.00 0.00 0.00 91 1015.2
20260906041316 73 173 0.0 0.0 0.00 0.00 0.00 91 1015.0
20260906040811 73 146 2.0 2.0 0.00 0.00 0.00 91 1015.2
20260906040306 74 144 1.0 2.0 0.00 0.00 0.00 91 1015.3
20260906035801 74 207 0.0 0.0 0.00 0.00 0.00 91 1015.1
20260906035257 74 199 0.0 0.0 0.00 0.00 0.00 91 1015.2
20260906034751 74 142 0.0 1.0 0.00 0.00 0.00 91 1015.1
20260906034246 74 166 2.0 3.0 0.00 0.00 0.00 90 1015.1
20260906033742 74 238 0.0 0.0 0.00 0.00 0.00 90 1015.2
20260906033242 75 203 0.0 1.0 0.00 0.00 0.00 90 1015.2
20260906032738 75 210 0.0 0.0 0.00 0.00 0.00 91 1015.2
20260906032238 75 254 0.0 1.0 0.00 0.00 0.00 91 1015.3
20260906031733 75 198 1.0 1.0 0.00 0.00 0.00 91 1015.3
20260906031229 75 15 0.0 1.0 0.00 0.00 0.00 91 1015.0
20260906030728 74 185 1.0 1.0 0.00 0.00 0.00 91 1015.0
20260906030223 74 222 0.0 1.0 0.00 0.00 0.00 91 1015.0
20260906025723 74 204 1.0 1.0 0.00 0.00 0.00 91 1014.9
20260906025218 74 65 2.0 2.0 0.00 0.00 0.00 92 1014.8
20260906024717 74 50 2.0 2.0 0.00 0.00 0.00 92 1014.8
20260906024216 74 171 1.0 1.0 0.00 0.00 0.00 92 1014.8
20260906023713 74 121 0.0 1.0 0.00 0.00 0.00 92 1014.7
20260906023213 74 40 0.0 0.0 0.00 0.00 0.00 91 1014.7
20260906022708 75 208 0.0 0.0 0.00 0.00 0.00 91 1014.6
20260906022203 75 36 0.0 1.0 0.00 0.00 0.00 92 1014.5
20260906021659 74 260 0.0 1.0 0.00 0.00 0.00 92 1014.4
20260906021157 74 254 0.0 0.0 0.00 0.00 0.00 92 1014.3
20260906020653 74 207 0.0 0.0 0.00 0.00 0.00 91 1014.5
20260906020147 75 206 0.0 0.0 0.00 0.00 0.00 91 1014.3
20260906015641 75 259 0.0 0.0 0.00 0.00 0.00 91 1014.3
20260906015141 75 256 0.0 1.0 0.00 0.00 0.00 90 1014.2
20260906014641 75 314 0.0 0.0 0.00 0.00 0.00 90 1014.0
20260906014137 75 298 0.0 0.0 0.00 0.00 0.00 89 1013.9
20260906013632 76 277 0.0 0.0 0.00 0.00 0.00 88 1013.9
20260906013128 76 269 0.0 0.0 0.00 0.00 0.00 88 1014.1
20260906012627 76 68 0.0 1.0 0.00 0.00 0.00 87 1013.9
20260906012122 77 336 1.0 1.0 0.00 0.00 0.00 87 1013.9
20260906011618 77 233 0.0 0.0 0.00 0.00 0.00 86 1013.7
20260906011118 77 134 1.0 2.0 0.00 0.00 0.00 86 1013.8
20260906010614 77 298 1.0 2.0 0.00 0.00 0.00 86 1013.9
20260906010110 77 251 0.0 0.0 0.00 0.00 0.00 86 1013.8
20260906005609 77 206 0.0 0.0 0.00 0.00 0.00 86 1013.8
20260906005108 77 174 0.0 1.0 0.00 0.00 0.00 86 1013.7
20260906004608 77 188 0.0 0.0 0.00 0.00 0.00 85 1013.7
20260906004103 78 198 1.0 1.0 0.00 0.00 0.00 85 1013.8
20260906003558 78 234 0.0 0.0 0.00 0.00 0.00 84 1013.9
20260906003054 78 127 1.0 2.0 0.00 0.00 0.00 84 1013.7
20260906002548 78 113 2.0 2.0 0.00 0.00 0.00 83 1013.7
20260906002043 78 219 0.0 1.0 0.00 0.00 0.00 83 1013.6
20260906001539 78 118 1.0 2.0 0.00 0.00 0.00 83 1013.6
20260906001033 78 180 2.0 2.0 0.00 0.00 0.00 82 1013.7
20260906000529 79 81 2.0 2.0 0.00 0.00 0.00 83 1013.4
20260906000024 79 204 0.0 0.0 0.00 0.00 0.00 82 1013.5
20260905235524 79 197 0.0 0.0 0.00 0.00 0.00 82 1013.5
20260905235019 79 168 1.0 1.0 0.00 0.00 0.00 82 1013.5
20260905234514 79 128 1.0 2.0 0.00 0.00 0.00 82 1013.6
20260905234008 79 253 0.0 0.0 0.00 0.00 0.00 82 1013.6
20260905233503 80 119 2.0 3.0 0.00 0.00 0.00 82 1013.5
20260905233002 80 233 0.0 1.0 0.00 0.00 0.00 82 1013.5
20260905232458 80 81 2.0 2.0 0.00 0.00 0.00 81 1013.4
20260905231954 80 79 2.0 2.0 0.00 0.00 0.00 81 1013.4
20260905231449 80 344 1.0 2.0 0.00 0.00 0.00 80 1013.3
20260905230946 80 292 1.0 1.0 0.00 0.00 0.00 80 1013.2
20260905230444 80 155 2.0 2.0 0.00 0.00 0.00 80 1013.0
20260905225942 81 146 2.0 3.0 0.00 0.00 0.00 80 1013.2
20260905225438 81 105 2.0 2.0 0.00 0.00 0.00 80 1013.4
20260905224933 81 55 1.0 2.0 0.00 0.00 0.00 80 1013.4
20260905224429 82 58 2.0 4.0 0.00 0.00 0.00 81 1013.3
20260905223928 82 58 1.0 2.0 0.00 0.00 0.00 81 1013.4
20260905223426 82 129 2.0 3.0 0.00 0.00 0.00 81 1013.1
20260905222920 82 42 2.0 3.0 0.00 0.00 0.00 80 1013.2
20260905222419 82 81 2.0 3.0 0.00 0.00 0.00 81 1013.1
20260905221915 82 11 5.0 7.0 0.00 0.00 0.00 81 1012.9
20260905221412 82 59 5.0 7.0 0.00 0.00 0.00 80 1012.7
20260905220908 83 54 4.0 6.0 0.00 0.00 0.00 79 1012.8
20260905220404 84 190 2.0 3.0 0.00 0.00 0.00 78 1012.7
20260905215903 84 180 2.0 2.0 0.00 0.00 0.00 79 1012.7
20260905215358 84 179 1.0 2.0 0.00 0.00 0.00 78 1012.6
20260905214855 84 91 4.0 7.0 0.00 0.00 0.00 78 1012.6
20260905214350 84 191 3.0 7.0 0.00 0.00 0.00 79 1012.4
20260905213844 84 127 3.0 4.0 0.00 0.00 0.00 78 1012.4
20260905213341 85 0 6.0 7.0 0.00 0.00 0.00 77 1012.5
20260905212836 84 52 4.0 6.0 0.00 0.00 0.00 77 1012.5
20260905212335 85 122 6.0 8.0 0.00 0.00 0.00 77 1012.6
20260905211830 84 57 5.0 8.0 0.00 0.00 0.00 79 1012.6
20260905211326 85 125 3.0 6.0 0.00 0.00 0.00 77 1012.7
20260905210822 85 26 4.0 6.0 0.00 0.00 0.00 77 1012.6
20260905210322 85 184 2.0 3.0 0.00 0.00 0.00 78 1012.7
20260905205820 85 54 2.0 2.0 0.00 0.00 0.00 79 1012.9
20260905205316 84 55 4.0 4.0 0.00 0.00 0.00 79 1012.8
20260905204814 84 45 3.0 7.0 0.00 0.00 0.00 78 1012.9
20260905204311 85 159 2.0 3.0 0.00 0.00 0.00 79 1012.9
20260905203809 85 84 4.0 6.0 0.00 0.00 0.00 78 1013.2
20260905203306 84 30 2.0 3.0 0.00 0.00 0.00 79 1013.2
20260905202800 85 9 3.0 6.0 0.00 0.00 0.00 77 1013.4
20260905202255 85 78 4.0 6.0 0.00 0.00 0.00 78 1013.3
20260905201751 85 167 3.0 4.0 0.00 0.00 0.00 78 1013.5
20260905201246 85 3 3.0 4.0 0.00 0.00 0.00 79 1013.5
20260905200741 84 92 0.0 1.0 0.00 0.00 0.00 79 1013.7
20260905200237 84 64 5.0 6.0 0.00 0.00 0.00 79 1013.5
20260905195734 84 11 5.0 6.0 0.00 0.00 0.00 79 1013.4
20260905195229 84 139 4.0 6.0 0.00 0.00 0.00 78 1013.6
20260905194725 84 53 4.0 6.0 0.00 0.00 0.00 79 1013.7
20260905194219 83 104 4.0 6.0 0.00 0.00 0.00 80 1013.8
20260905193713 83 36 6.0 7.0 0.00 0.00 0.00 81 1013.4
20260905193208 84 108 3.0 4.0 0.00 0.00 0.00 80 1013.5
20260905192704 84 70 5.0 6.0 0.00 0.00 0.00 79 1013.6
20260905192200 84 37 3.0 6.0 0.00 0.00 0.00 79 1013.9
20260905191659 84 74 3.0 4.0 0.00 0.00 0.00 79 1014.3
20260905191157 84 338 2.0 3.0 0.00 0.00 0.00 78 1014.5
20260905190656 84 51 3.0 3.0 0.00 0.00 0.00 82 1014.3
20260905190155 84 30 3.0 3.0 0.00 0.00 0.00 80 1014.4
20260905185654 84 49 3.0 4.0 0.00 0.00 0.00 80 1014.5
20260905185150 84 39 5.0 8.0 0.00 0.00 0.00 80 1014.6
20260905184649 84 24 2.0 3.0 0.00 0.00 0.00 82 1014.6
20260905184148 84 47 5.0 6.0 0.00 0.00 0.00 81 1014.5
20260905183647 85 233 2.0 3.0 0.00 0.00 0.00 80 1014.5
20260905183143 86 54 4.0 7.0 0.00 0.00 0.00 80 1014.5
20260905182642 85 339 2.0 3.0 0.00 0.00 0.00 82 1014.6
20260905182142 85 35 1.0 2.0 0.00 0.00 0.00 82 1014.8
20260905181637 85 351 2.0 3.0 0.00 0.00 0.00 81 1014.4
20260905181136 86 60 2.0 3.0 0.00 0.00 0.00 79 1014.6
20260905180631 86 45 4.0 6.0 0.00 0.00 0.00 78 1014.6
20260905180127 85 348 2.0 2.0 0.00 0.00 0.00 80 1014.6
20260905175626 85 11 2.0 4.0 0.00 0.00 0.00 81 1014.8
20260905175121 86 32 2.0 3.0 0.00 0.00 0.00 79 1014.7
20260905174617 86 353 2.0 2.0 0.00 0.00 0.00 79 1014.7
20260905174112 86 327 2.0 2.0 0.00 0.00 0.00 77 1014.8
20260905173608 86 279 1.0 2.0 0.00 0.00 0.00 78 1014.6
20260905173104 87 344 1.0 2.0 0.00 0.00 0.00 77 1014.5
20260905172602 87 64 2.0 3.0 0.00 0.00 0.00 76 1014.6
20260905172057 87 187 2.0 2.0 0.00 0.00 0.00 76 1014.3
20260905171554 87 80 4.0 6.0 0.00 0.00 0.00 75 1014.5
20260905171050 86 2 2.0 3.0 0.00 0.00 0.00 78 1014.4
20260905170546 86 133 2.0 2.0 0.00 0.00 0.00 78 1014.5
20260905170041 86 225 1.0 1.0 0.00 0.00 0.00 78 1014.4
20260905165531 86 99 2.0 2.0 0.00 0.00 0.00 78 1014.2
20260905165026 86 59 2.0 3.0 0.00 0.00 0.00 78 1014.3
20260905164525 86 69 1.0 3.0 0.00 0.00 0.00 78 1014.6
20260905164020 86 242 1.0 1.0 0.00 0.00 0.00 78 1014.5
20260905163516 86 81 2.0 3.0 0.00 0.00 0.00 78 1014.6
20260905163012 86 75 3.0 4.0 0.00 0.00 0.00 77 1014.6
20260905162508 85 45 2.0 4.0 0.00 0.00 0.00 80 1014.6
20260905162002 85 146 2.0 2.0 0.00 0.00 0.00 79 1014.5
20260905161502 84 18 2.0 2.0 0.00 0.00 0.00 81 1014.5
20260905161000 84 170 1.0 3.0 0.00 0.00 0.00 80 1014.6
20260905160454 84 60 4.0 6.0 0.00 0.00 0.00 79 1014.6
20260905155953 84 10 3.0 3.0 0.00 0.00 0.00 79 1014.4
20260905155448 83 131 2.0 4.0 0.00 0.00 0.00 82 1014.5
20260905154947 83 22 2.0 2.0 0.00 0.00 0.00 81 1014.5
20260905154442 83 167 1.0 1.0 0.00 0.00 0.00 80 1014.6
20260905153938 83 11 2.0 2.0 0.00 0.00 0.00 80 1014.6
20260905153434 83 10 3.0 3.0 0.00 0.00 0.00 79 1014.4
20260905152933 83 272 0.0 1.0 0.00 0.00 0.00 79 1014.5
20260905152433 83 348 2.0 3.0 0.00 0.00 0.00 78 1014.4
20260905151928 83 218 0.0 1.0 0.00 0.00 0.00 78 1014.2
20260905151424 83 33 1.0 1.0 0.00 0.00 0.00 79 1014.1
20260905150924 82 29 2.0 3.0 0.00 0.00 0.00 79 1014.1
20260905150424 82 64 1.0 2.0 0.00 0.00 0.00 80 1014.1
20260905145920 81 40 1.0 1.0 0.00 0.00 0.00 81 1014.0
20260905145416 80 197 1.0 2.0 0.00 0.00 0.00 82 1013.8
20260905144915 80 60 1.0 2.0 0.00 0.00 0.00 82 1014.0
20260905144411 80 281 1.0 1.0 0.00 0.00 0.00 82 1014.0
20260905143910 80 215 0.0 1.0 0.00 0.00 0.00 83 1013.9
20260905143404 79 215 0.0 1.0 0.00 0.00 0.00 84 1013.8
20260905142903 79 192 1.0 1.0 0.00 0.00 0.00 84 1013.7
20260905142402 79 86 1.0 2.0 0.00 0.00 0.00 84 1013.8
20260905141858 79 66 2.0 3.0 0.00 0.00 0.00 82 1013.8
20260905141353 79 134 1.0 2.0 0.00 0.00 0.00 83 1013.5
20260905140849 79 224 0.0 0.0 0.00 0.00 0.00 83 1013.7
20260905140349 78 41 2.0 2.0 0.00 0.00 0.00 84 1013.6
20260905135848 78 324 0.0 1.0 0.00 0.00 0.00 86 1013.8
20260905135344 77 266 0.0 1.0 0.00 0.00 0.00 86 1013.7
20260905134839 77 38 0.0 1.0 0.00 0.00 0.00 86 1013.6
20260905134337 77 38 1.0 2.0 0.00 0.00 0.00 87 1013.6
20260905133832 76 1 2.0 2.0 0.00 0.00 0.00 87 1013.6
20260905133328 76 62 0.0 0.0 0.00 0.00 0.00 88 1013.3
20260905132826 75 315 1.0 1.0 0.00 0.00 0.00 90 1013.4
20260905132323 74 358 0.0 1.0 0.00 0.00 0.00 93 1013.4
20260905131816 74 203 0.0 1.0 0.00 0.00 0.00 96 1013.0
20260905131312 73 276 0.0 0.0 0.00 0.00 0.00 98 1013.1
20260905130807 72 269 0.0 0.0 0.00 0.00 0.00 99 1013.0
20260905130306 72 269 0.0 0.0 0.00 0.00 0.00 98 1013.0
20260905125801 71 269 0.0 0.0 0.00 0.00 0.00 99 1012.9
20260905125256 71 269 0.0 0.0 0.00 0.00 0.00 99 1012.9
20260905124753 71 269 0.0 0.0 0.00 0.00 0.00 99 1012.8
20260905124249 71 269 0.0 0.0 0.00 0.00 0.00 99 1012.8
20260905123743 70 269 0.0 0.0 0.00 0.00 0.00 99 1012.8
20260905123240 70 270 0.0 0.0 0.00 0.00 0.00 99 1012.8
20260905122735 70 269 0.0 0.0 0.00 0.00 0.00 99 1012.8
20260905122234 70 270 0.0 0.0 0.00 0.00 0.00 99 1012.5
20260905121729 70 266 0.0 0.0 0.00 0.00 0.00 99 1012.6
20260905121226 70 271 0.0 0.0 0.00 0.00 0.00 99 1012.4
20260905120724 70 263 0.0 0.0 0.00 0.00 0.00 99 1012.5
20260905120219 69 294 0.0 0.0 0.00 0.00 0.00 99 1012.4